User: anonymous   Login
Location: Unspecified
(0.0000°N, 0.0000°E)
Time: 08:58:19
(UTC+01:00)
Language:

Meteor PRIRODA - Orbit

View from above orbital plane
View from above orbital plane
View from above satellite
View from above satellite

Ground track
Ground track

The orbit data is extracted from the following two-line orbital elements,

1 12585U 81065A   17324.93109538  .00000851  00000-0  41878-4 0  9992
2 12585  97.4494 302.1687 0013808 206.6671 153.3855 15.20646481986083
Epoch (UTC): 20 November 2017 22:20:46
Eccentricity: 0.0013808
inclination: 97.4494°
perigee height: 494 km
apogee height: 513 km
right ascension of ascending node: 302.1687°
argument of perigee: 206.6671°
revolutions per day: 15.20646481
mean anomaly at epoch: 153.3855°
orbit number at epoch: 98608

The dashed part of the orbit path shows where the satellite is in the earth's shadow,  

DLR